Satellite: NCUBE2
Catalog number: 28897
Epoch time:      07080.24992411
Element set:    0208
Inclination:      098.1405 deg
RA of node:       338.7414 deg
Eccentricity:    0.0018101
Arg of perigee:   030.7973 deg
Mean anomaly:     329.4283 deg
Mean motion:   14.59687585 rev/day
Decay rate:       1.63e-06 rev/day^2
Epoch rev:           06654
Checksum:              319

Satellite: NMARS
Catalog number: 29662
Epoch time:      07081.69860308
Element set:     143
Inclination:      051.6372 deg
RA of node:       183.4952 deg
Eccentricity:    0.0012693
Arg of perigee:   001.1634 deg
Mean anomaly:     358.9430 deg
Mean motion:   15.96164437 rev/day
Decay rate:     9.4645e-04 rev/day^2
Epoch rev:            1446
Checksum:              309

Satellite: FCAL
Catalog number: 29667
Epoch time:      07080.71525755
Element set:    0103
Inclination:      051.6352 deg
RA of node:       191.9469 deg
Eccentricity:    0.0015789
Arg of perigee:   005.0375 deg
Mean anomaly:     355.0783 deg
Mean motion:   15.84897008 rev/day
Decay rate:     1.2935e-04 rev/day^2
Epoch rev:           01411
Checksum:              312

Satellite: FALCON
Catalog number: 30776
Epoch time:      07080.94995172
Element set:    0030
Inclination:      035.4343 deg
RA of node:       021.4829 deg
Eccentricity:    0.0001113
Arg of perigee:   022.4296 deg
Mean anomaly:     337.6466 deg
Mean motion:   15.02657828 rev/day
Decay rate:       2.85e-06 rev/day^2
Epoch rev:           00192
Checksum:              281

/EX






More information about the Keps mailing list